Terminal Aerodrome Forecast
Issued by NWS Sterling, VA

Current Version | Previous Version | Text Only | Print | Product List | Glossary On
Versions: 1 2 3 4 5 6 7 8 9 10 11 12 13 14 15 16 17 18 19 20 21
000
FTUS41 KLWX 311322 AAA
TAFMRB
TAF AMD
KMRB 311322Z 3113/0112 01005KT P6SM SKC
     FM010600 VRB03KT 3SM BR FEW070 SCT250
     FM010800 36004KT 2SM BR FEW070 SCT250=

USA.gov is the U.S. government's official web portal to all federal, state and local government web resources and services.